Location: Newark
(27.9675°N, 86.8869°E)
Time: 18:07:16
(UTC+00:00)

SR - Pass Details

Date: 25 October 2019
Orbit: 574 x 882 km, 66.7° (Epoch: 12 November)

Event Time Altitude Azimuth Distance (km) Brightness Sun altitude
Rises 15:52:05 0° 256° (WSW) 3,039 - -56.9°
Reaches altitude 10° 15:56:12 10° 291° (WNW) 2,213 - -57.8°
Maximum altitude 15:57:43 11° 309° (NW) 2,162 - -58.1°
Drops below altitude 10° 15:59:16 10° 326° (NNW) 2,279 - -58.4°
Sets 16:03:46 0° 0° (N) 3,298 - -59.3°
